星链-31792 (STARLINK-31792 )

导读 | 豆包AI

STARLINK-31792是美国SpaceX公司于2024年6月24日发射的星链(Starlink)低轨互联网通信卫星,隶属于星链星座组网计划。星链项目旨在为全球提供高速宽带互联网服务,该卫星采用平板设计,搭载Ku/Ka波段通信载荷,配备氪工质霍尔推进器,具备自主避撞能力,设计寿命约5至7年,退役后将再入大气层焚毁。

Basic Information
目录编号:
60132
目录名称:
STARLINK-31792
国际标识:
2024-118V
轨道中心:
EARTH
卫星名称:
星链-31792
卫星全名:
星链-31792 (STARLINK-31792 )
卫星状态:
在轨 (已飞行676 天)
发射日期:
2024-06-24 UTC
国别 :
美国 (US)
星等 :
--
Orbit Information
数据来源 国际轨道数据 AOE轨道数据
星历时间 2026-04-30T18:44:05+0800
16小时前
查看轨道信息
2026-04-28T15:00:00+0800
2天前
查看轨道信息
半长轴 6853.388km 6853.36km
偏心率 0.0001141 0.0001438
轨道倾角 53.160° 53.159°
近地点辐角 87.357° 74.043°
升交点赤经 143.924° 153.937°
平近点角 272.756° 284.846°
近地点 474.469km 474.237km
远地点 476.033km 476.209km
周期 94.106分钟 94.105分钟
每日圈数 15.301883 15.301976
Detailed Information
固有亮度:
5
最大亮度:
1.5
卫星平台:
Starlink v2.0 mini
覆盖范围:
全球
运营商:
SpaceX
制造商(研发单位):
太空探索技术公司
制造商所在国:
美国
使用方式:
暂无
Satellite Introduction
星链(Starlink)计划是由太空探索技术公司(SpaceX)提出的一个巨型低轨卫星互联网星座项目,计划在2019年至2024年间在太空搭建由约1.2万颗卫星组成的“星链”网络,其中1584颗将部署在地球上空550千米处的近地轨道,并从2020年开始工作。该卫星仍在工作。
2D Orbit Map
3D Orbit Map
Orbit Altitude Analysis Chart
Orbit Inclination Analysis Chart
Orbit Comprehensive Analysis Chart
View Comprehensive Chart